Location: Rodson Ranch
(38.7188°N, 119.3202°W)
Time: 16:26:51
(UTC+00:00)

ATLAS CENTAUR R/B - Pass Details

Date: 29 October 2020
Orbit: 478 x 667 km, 64.7° (Epoch: 16 November)

Event Time Altitude Azimuth Distance (km) Brightness Sun altitude
Rises 12:40:05 0° 187° (S) 2,700 4.8 -20.3°
Reaches altitude 10° 12:42:30 10° 177° (S) 1,779 4.0 -19.8°
Maximum altitude 12:46:00 30° 115° (ESE) 937 3.1 -19.2°
Drops below altitude 10° 12:49:22 10° 53° (NE) 1,709 4.5 -18.5°
Sets 12:51:39 0° 42° (NE) 2,575 5.3 -18.1°
